This is the latest recevied weather packets stored in our database for station/object W4JCW. If no packets are shown the sender has not sent any weather packets the latest 10 day(s).
| Time | Temp. | Humidity | Pressure | Rain* | Wind** | Luminosity | Snow |
|---|---|---|---|---|---|---|---|
| 1777820970 | 16.67° C | 45% | 1019.2 hPa | 0 mm | - | 845 W/m² | - |
| 1777820667 | 16.67° C | 44% | 1019.2 hPa | 0 mm | - | 558 W/m² | - |
| 1777820362 | 16.67° C | 46% | 1019 hPa | 0 mm | - | 486 W/m² | - |
| 1777820061 | 16.67° C | 48% | 1018.9 hPa | 0 mm | - | 62 W/m² | - |
| 1777819757 | 16.11° C | 46% | 1018.9 hPa | 0 mm | - | 80 W/m² | - |
| 1777819456 | 16.11° C | 49% | 1019.1 hPa | 0 mm | - | 74 W/m² | - |
| 1777819153 | 16.11° C | 47% | 1018.8 hPa | 0 mm | - | 80 W/m² | - |
| 1777818849 | 16.11° C | 50% | 1018.7 hPa | 0 mm | - | 62 W/m² | - |
| 1777818545 | 16.11° C | 49% | 1018.5 hPa | 0 mm | - | 59 W/m² | - |
| 1777818243 | 15.56° C | 49% | 1018.7 hPa | 0 mm | - | 419 W/m² | - |
| 1777817939 | 15.56° C | 48% | 1018.5 hPa | 0 mm | - | 627 W/m² | - |
| 1777817637 | 15.56° C | 48% | 1018.7 hPa | 0 mm | - | 166 W/m² | - |
| 1777817333 | 15.56° C | 47% | 1018.5 hPa | 0 mm | - | 632 W/m² | - |
| 1777817030 | 15.56° C | 48% | 1018.6 hPa | 0 mm | - | 292 W/m² | - |
| 1777816726 | 15.56° C | 48% | 1018.8 hPa | 0 mm | - | 327 W/m² | - |
| 1777816424 | 15° C | 50% | 1018.7 hPa | 0 mm | - | 578 W/m² | - |
| 1777816121 | 15° C | 49% | 1018.6 hPa | 0 mm | - | 560 W/m² | - |
| 1777815819 | 15° C | 49% | 1018.6 hPa | 0 mm | - | 552 W/m² | - |
| 1777815516 | 15° C | 52% | 1018.6 hPa | 0 mm | - | 542 W/m² | - |
| 1777815213 | 14.44° C | 53% | 1018.5 hPa | 0 mm | - | 492 W/m² | - |
| 1777814910 | 13.89° C | 54% | 1018.6 hPa | 0 mm | - | 474 W/m² | - |
| 1777814606 | 13.89° C | 57% | 1018.5 hPa | 0 mm | - | 521 W/m² | - |
| 1777814304 | 13.33° C | 58% | 1018.5 hPa | 0.51 mm | - | 544 W/m² | - |
| 1777814000 | 12.78° C | 60% | 1018.5 hPa | 0.51 mm | - | 349 W/m² | - |
| 1777813697 | 12.78° C | 62% | 1018.6 hPa | 0 mm | - | 165 W/m² | - |
* Rain latest hour (hover to see other rain measurements)
** Current wind speed in m/s (hover to see current wind gust speed)